Погода в Большом Каринском

Россия / Владимирская область     56°22′04″N   38°39′21″E
темп.,
°C
ветер,
м/с
пор.,
м/с
влажн.,
%
обл.,
%
осадки,
мм/ч
давл.,
гПа
погр.,
м
26 октября, вт
вт2600:000юз413805 0.0 1025464
03:000юз4138453 0.0 1024476
06:000юз4128697 0.0 1023448
09:00+1юз41280100 0.0 1022480
12:00+4юз51266100 0.0 1021588
15:00+5юз51264100 0.0 1019688
18:00+3юз41370100 0.0 1019524
21:00+3юз51370100 0.0 1019565
27 октября, ср
ср2700:00+2юз41274100 0.0 1018516
03:00+2юз41278100 0.0 1016472
06:00+2ююз41277100 0.0 1015464
09:00+3юз51471100 0.0 1013599
12:00+5юз51367100 0.0 1011694
15:00+4зюз51282100 0.2 1010827
18:00+3зюз41297100 1.5 1011541
21:00+5з5128785 1.5 1011678
28 октября, чт
чт2800:00+6з51281100 0.0 1012641
03:00+5зюз41189100 0.0 1012483
06:00+4юз31092100 0.0 1011382
09:00+5ююз3992100 0.0 1010348
12:00+5юз41196100 1.3 1009581
15:00+7зюз41296100 2.0 1009613
18:00+9зсз4118992 0.1 1010679
21:00+6ссв4892100 0.7 1014833
29 октября, пт
пт2900:00+5ссв4891100 0.1 1019683
03:00+3ссв488592 0.1 1022539
06:00−1св368096 0.0 1026346
09:00−1всв247371 0.0 1029304
12:00+2юв235533 0.0 1030486
15:00+3ю345599 0.0 1030472
18:000ю387381 0.0 1030229
21:00+2ююз41175100 0.0 1029375
30 октября, сб
сб3000:00+4ююз4128533 0.0 1028409
03:00+4юз4129442 0.0 1028333
06:00+5юз4139625 0.0 1028340
09:00+6юз4149529 0.0 1027395
12:00+10юз5138148 0.0 1027515
15:00+10юз5137998 0.0 1027574
18:00+8юз4148369 0.0 1026454
21:00+7юз51581100 0.0 1026467